Satellite-Ground Cal/Val Site Overpasses Predictions

Prediction of Satellite NPP Overpassing Cal/Val Site: Antarctic Dome C

Ground Cal/Val Site Location: Latitude: -75.10, Longitude: 123.35; Satellite-Ground Site NADIR distance within 100 km.

Table of predicted overpasses for the next 14.0 days since TLE Epoch: 12/13/2013
Interval Starting Time Ending Time Minimum Distance Time Minimum Distance (km)
1 12/15/2013 14:50:42 12/15/2013 14:51:12 12/15/2013 14:50:57 9.78
2 12/17/2013 07:33:34 12/17/2013 07:34:04 12/17/2013 07:33:49 4.15
3 12/20/2013 14:57:06 12/20/2013 14:57:35 12/20/2013 14:57:20 26.98
4 12/21/2013 14:38:25 12/21/2013 14:38:42 12/21/2013 14:38:33 80.17
5 12/22/2013 07:39:58 12/22/2013 07:40:26 12/22/2013 07:40:12 32.09
6 12/23/2013 07:21:15 12/23/2013 07:21:33 12/23/2013 07:21:24 77.92
7 12/25/2013 15:03:33 12/25/2013 15:03:56 12/25/2013 15:03:44 64.11
8 12/26/2013 14:44:43 12/26/2013 14:45:09 12/26/2013 14:44:56 45.15


NCC Satellite Cal/Val Overpasses Prediction Service
